This demonstration page uses our WeatherBlox Daily Observations layout. Learn more.

Left ArrowRight Arrow

Hourly Observations for January 20, 2016

Temp ( °F °C ) Dew Point ( °F °C ) Humidity (%) Winds ( mph kmh ) Pressure ( in mb ) Visibility ( mi km ) Precip ( " mm )
12:41 am 00:41 Cloudy 24 -4.4 21 -6.1 88 88 S 5 7 30.21 1023 9 14 0.00 0.00
12:53 am 00:53 Cloudy 24 -4.4 21 -6.1 88 88 S 7 11 30.20 1023 9 14 0.00 0.00
1:53 am 01:53 Cloudy 25 -3.9 21 -6.1 85 85 S 3 6 30.19 1022 9 14 0.00 0.00
2:53 am 02:53 Cloudy 25 -3.9 21 -6.1 85 85 S 5 7 30.17 1022 9 14 0.00 0.00
3:53 am 03:53 Cloudy 26 -3.3 22 -5.6 84 84 S 7 11 30.16 1021 10 16 0.00 0.00
4:32 am 04:32 Cloudy 27 -3 21 -6 80 80 S 7 11 30.18 1022 10 16 0.00 0.00
4:53 am 04:53 Cloudy 26 -3.3 22 -5.6 84 84 S 7 11 30.14 1021 10 16 0.00 0.00
5:53 am 05:53 Cloudy 26 -3.3 22 -5.6 84 84 S 7 11 30.14 1021 10 16 0.00 0.00
6:53 am 06:53 Cloudy 26 -3.3 23 -5 88 88 S 8 13 30.13 1020 7 11 0.00 0.00
7:53 am 07:53 Cloudy 26 -3.3 23 -5 88 88 S 9 15 30.12 1020 7 11 0.00 0.00
8:24 am 08:24 Cloudy with Mist and Fog 27 -3 25 -4 93 93 SSW 8 13 30.15 1021 5 8 0.00 0.00
8:53 am 08:53 Cloudy with Mist and Fog 26 -3.3 23 -5 88 88 S 12 19 30.12 1020 5 8 0.00 0.00
9:23 am 09:23 Cloudy with Mist and Fog 26 -3.3 24 -4.4 92 92 S 12 19 30.18 1022 3 4 0.00 0.00
9:53 am 09:53 Cloudy with Mist and Fog 26 -3.3 24 -4.4 92 92 S 9 15 30.12 1020 3 4 0.00 0.00
10:39 am 10:39 Cloudy with Mist and Fog 26 -3.3 24 -4.4 92 92 S 9 15 30.15 1021 3 5 0.00 0.00
10:53 am 10:53 Cloudy with Mist and Fog 26 -3.3 24 -4.4 92 92 S 8 13 30.11 1020 3 5 0.00 0.00
11:53 am 11:53 Cloudy with Mist and Fog 27 -2.8 25 -3.9 92 92 S 10 17 30.09 1019 5 8 0.00 0.00
12:53 pm 12:53 Cloudy 29 -1.7 25 -3.9 85 85 S 10 17 30.04 1017 8 13 0.00 0.00
1:38 pm 13:38 Cloudy 30 -1 25 -4 80 80 S 12 19 30.06 1018 10 16 0.00 0.00
1:53 pm 13:53 Cloudy 31 -0.6 25 -3.9 79 79 S 12 19 30.01 1016 10 16 0.00 0.00
2:27 pm 14:27 Mostly Cloudy 32 0 25 -3.9 75 75 SSE 12 19 30.03 1017 10 16 0.00 0.00
2:53 pm 14:53 Mostly Sunny 33 0.6 24 -4.4 70 70 S 12 19 29.98 1015 10 16 0.00 0.00
3:53 pm 15:53 Cloudy 33 0.6 24 -4.4 70 70 S 13 20 29.98 1015 10 16 0.00 0.00
4:53 pm 16:53 Cloudy 32 0 24 -4.4 73 73 SSE 13 20 29.99 1016 10 16 0.00 0.00
5:53 pm 17:53 Cloudy 30 -1.1 24 -4.4 79 79 SSE 14 22 30.00 1016 10 16 0.00 0.00
6:13 pm 18:13 Cloudy 30 -1.1 24 -4.4 79 79 SSE 9 15 30.03 1017 9 14 0.00 0.00
6:53 pm 18:53 Cloudy with Light Snow 29 -1.7 25 -3.9 85 85 SSE 9 15 30.02 1017 5 8 0.00 0.03
7:01 pm 19:01 Cloudy with Light Snow 29 -1.7 25 -3.9 85 85 SSE 9 15 30.09 1019 4 6 0.00 0.03
7:16 pm 19:16 Cloudy with Light Snow 29 -1.7 26 -3.3 89 89 S 8 13 30.09 1019 2 3 0.01 0.25
7:26 pm 19:26 Cloudy with Light Snow 28 -2 27 -3 93 93 SSE 7 11 30.09 1019 2 2 0.00 0.00
7:45 pm 19:45 Cloudy with Light Snow 29 -1.7 25 -3.9 85 85 SSE 9 15 30.09 1019 1 1 0.02 0.51
7:53 pm 19:53 Cloudy with Light Snow 28 -2.2 26 -3.3 92 92 SE 6 9 30.04 1017 1 1 0.03 0.76
8:33 pm 20:33 Cloudy with Light Snow 28 -2.2 26 -3.3 92 92 SSE 6 9 30.09 1019 1 2 0.01 0.25
8:53 pm 20:53 Cloudy with Light Snow 28 -2.2 25 -3.9 88 88 SSE 8 13 30.06 1018 1 2 0.03 0.76
9:20 pm 21:20 Cloudy with Light Snow 28 -2 25 -4 86 86 SE 7 11 30.12 1020 1 2 0.00 0.00
9:53 pm 21:53 Cloudy with Light Snow 28 -2.2 25 -3.9 88 88 ESE 6 9 30.08 1019 2 2 0.01 0.25
10:04 pm 22:04 Cloudy with Light Snow 27 -3 25 -4 93 93 SE 9 15 30.12 1020 2 3 0.00 0.00
10:07 pm 22:07 Cloudy with Light Snow 27 -2.8 24 -4.4 89 89 SE 9 15 30.12 1020 2 3 0.01 0.25
10:18 pm 22:18 Cloudy with Light Snow 27 -3 25 -4 93 93 SE 7 11 30.15 1021 2 3 0.00 0.00
10:53 pm 22:53 Cloudy with Light Snow 27 -2.8 24 -4.4 89 89 SE 10 17 30.10 1019 1 2 0.01 0.25
11:49 pm 23:49 Cloudy with Light Snow 27 -3 25 -4 93 93 ESE 7 11 30.18 1022 2 3 0.01 0.25
11:53 pm 23:53 Cloudy with Light Snow 27 -2.8 23 -5 85 85 ESE 8 13 30.12 1020 3 4 0.01 0.25

Powered by AerisWeather